Location: Oulou
(10.7667°N, 12.5167°W)
Time: 02:37:54
(UTC+00:00)

Cosmos 2322 - Pass Details

Date: 20 September 2019
Orbit: 839 x 856 km, 71.0° (Epoch: 16 October)

Event Time Altitude Azimuth Distance (km) Brightness Sun altitude
Rises 20:05:57 0° 342° (NNW) 3,414 7.2 -20.0°
Reaches altitude 10° 20:08:24 10° 342° (NNW) 2,476 6.4 -20.6°
Maximum altitude 20:14:05 82° 255° (WSW) 861 3.7 -22.0°
Enters shadow 20:19:44 10° 167° (SSE) 2,458 5.9 -23.4°
